When you browse on this site, cookies collect data to enhance your experience and personalize the content and advertising you see.
Visit our Privacy Policy to learn more. By continuing to use the site, you agree to this use of cookies and data.

Hourly Weather Encamp

Today, 25 September, Friday

Time Temperature Precipitation Wind Pressure Humidity
00:00 +6°C° 0 mm 1 mps 618 mmHg 87%
01:00 +6°C° 0.6 mm 1 mps 618 mmHg 89%
02:00 +4°C° 0.6 mm 2 mps 618 mmHg 91%
03:00 +4°C° 0.6 mm 2 mps 618 mmHg 93%
04:00 +3°C° 1.9 mm 2 mps 618 mmHg 94%
05:00 +2°C° 1.9 mm 3 mps 618 mmHg 95%
06:00 +2°C° 0 mm 2 mps 618 mmHg 96%
07:00 +2°C° 0.4 mm 2 mps 618 mmHg 90%
08:00 +2°C° 0.4 mm 3 mps 618 mmHg 85%
09:00 +2°C° 0.4 mm 3 mps 619 mmHg 80%
10:00 +3°C° 0.8 mm 3 mps 619 mmHg 80%
11:00 +3°C° 0.8 mm 4 mps 619 mmHg 79%
12:00 +3°C° 0.8 mm 4 mps 619 mmHg 79%
13:00 +3°C° 0.6 mm 4 mps 619 mmHg 80%
14:00 +1°C° 0.6 mm 4 mps 619 mmHg 81%
15:00 +1°C° 0.6 mm 4 mps 619 mmHg 81%
16:00 0°C° 0.9 mm 4 mps 619 mmHg 86%
17:00 +1°C° 0.9 mm 3 mps 619 mmHg 90%
18:00 0°C° 0.9 mm 3 mps 619 mmHg 94%
19:00 -1°C° 1.6 mm 4 mps 619 mmHg 95%
20:00 -1°C° 1.6 mm 4 mps 620 mmHg 96%
21:00 -1°C° 1.6 mm 4 mps 620 mmHg 97%
22:00 -2°C° 1.1 mm 4 mps 620 mmHg 97%
23:00 -1°C° 1.1 mm 3 mps 620 mmHg 96%

Tomorrow, 26 September, Saturday

Time Temperature Precipitation Wind Pressure Humidity
00:00 -1°C° 1.1 mm 3 mps 620 mmHg 96%
01:00 -2°C° 0.7 mm 3 mps 620 mmHg 96%
02:00 -2°C° 0.7 mm 3 mps 619 mmHg 96%
03:00 -2°C° 0.7 mm 3 mps 619 mmHg 95%
04:00 -2°C° 0.6 mm 3 mps 619 mmHg 95%
05:00 -2°C° 0.6 mm 3 mps 619 mmHg 95%
06:00 -2°C° 0.6 mm 4 mps 619 mmHg 95%
07:00 0°C° 0.3 mm 3 mps 620 mmHg 92%
08:00 0°C° 0.3 mm 3 mps 620 mmHg 89%
09:00 +1°C° 0.3 mm 3 mps 621 mmHg 86%
10:00 +2°C° 0.1 mm 3 mps 621 mmHg 84%
11:00 +3°C° 0.1 mm 3 mps 621 mmHg 81%
12:00 +4°C° 0.1 mm 3 mps 621 mmHg 78%
13:00 +4°C° 0.1 mm 3 mps 620 mmHg 81%
14:00 +4°C° 0.1 mm 2 mps 620 mmHg 83%
15:00 +4°C° 0.1 mm 2 mps 619 mmHg 85%
16:00 +4°C° 0.2 mm 2 mps 619 mmHg 87%
17:00 +4°C° 0.2 mm 2 mps 618 mmHg 90%
18:00 +3°C° 0.2 mm 2 mps 617 mmHg 93%
19:00 +3°C° 2.5 mm 2 mps 617 mmHg 94%
20:00 +4°C° 2.5 mm 1 mps 617 mmHg 96%
21:00 +4°C° 2.5 mm 1 mps 617 mmHg 98%
22:00 +2°C° 1.9 mm 2 mps 617 mmHg 97%
23:00 +1°C° 1.9 mm 3 mps 617 mmHg 97%

Day after tomorrow, 27 September, Sunday

Time Temperature Precipitation Wind Pressure Humidity
00:00 0°C° 1.9 mm 3 mps 616 mmHg 97%
01:00 -1°C° 0.1 mm 3 mps 616 mmHg 95%
02:00 -2°C° 0.1 mm 3 mps 616 mmHg 94%
03:00 -4°C° 0.1 mm 3 mps 616 mmHg 93%
04:00 -5°C° 0 mm 3 mps 616 mmHg 90%
05:00 -5°C° 0 mm 3 mps 616 mmHg 88%
06:00 -6°C° 0 mm 3 mps 615 mmHg 85%
07:00 -4°C° 0 mm 3 mps 617 mmHg 81%
08:00 -1°C° 0 mm 3 mps 618 mmHg 77%
09:00 +1°C° 0 mm 3 mps 619 mmHg 72%
10:00 +2°C° 0 mm 3 mps 619 mmHg 70%
11:00 +3°C° 0 mm 3 mps 619 mmHg 68%
12:00 +5°C° 0 mm 2 mps 620 mmHg 66%
13:00 +5°C° 0 mm 2 mps 620 mmHg 67%
14:00 +4°C° 0 mm 3 mps 619 mmHg 68%
15:00 +4°C° 0 mm 3 mps 619 mmHg 68%
16:00 +3°C° 0.1 mm 3 mps 619 mmHg 75%
17:00 +1°C° 0.1 mm 3 mps 619 mmHg 82%
18:00 0°C° 0.1 mm 3 mps 618 mmHg 89%
19:00 0°C° 0.2 mm 3 mps 619 mmHg 90%
20:00 0°C° 0.2 mm 3 mps 619 mmHg 91%
21:00 +1°C° 0.2 mm 2 mps 620 mmHg 92%
22:00 +1°C° 0.1 mm 2 mps 620 mmHg 93%
23:00 +1°C° 0.1 mm 2 mps 620 mmHg 94%

28 September, Monday

Time Temperature Precipitation Wind Pressure Humidity
00:00 +1°C° 0.1 mm 2 mps 620 mmHg 94%
01:00 +1°C° 0 mm 2 mps 620 mmHg 94%
02:00 +1°C° 0 mm 2 mps 620 mmHg 94%
03:00 +1°C° 0 mm 2 mps 620 mmHg 94%
04:00 +1°C° 0 mm 2 mps 620 mmHg 92%
05:00 +1°C° 0 mm 2 mps 621 mmHg 91%
06:00 0°C° 0 mm 3 mps 621 mmHg 89%
07:00 +3°C° 0 mm 2 mps 622 mmHg 84%
08:00 +4°C° 0 mm 2 mps 622 mmHg 80%
09:00 +6°C° 0 mm 2 mps 623 mmHg 75%
10:00 +7°C° 0 mm 2 mps 624 mmHg 72%
11:00 +8°C° 0 mm 2 mps 624 mmHg 69%
12:00 +9°C° 0 mm 2 mps 625 mmHg 67%
13:00 +9°C° 0 mm 2 mps 625 mmHg 68%
14:00 +9°C° 0 mm 2 mps 624 mmHg 69%
15:00 +9°C° 0 mm 2 mps 624 mmHg 71%
16:00 +7°C° 0 mm 2 mps 624 mmHg 75%
17:00 +5°C° 0 mm 2 mps 623 mmHg 79%
18:00 +3°C° 0 mm 2 mps 623 mmHg 83%
19:00 +3°C° 0 mm 2 mps 623 mmHg 80%
20:00 +4°C° 0 mm 1 mps 623 mmHg 76%
21:00 +4°C° 0 mm 1 mps 624 mmHg 73%
22:00 +4°C° 0 mm 1 mps 624 mmHg 68%
23:00 +4°C° 0 mm 1 mps 624 mmHg 64%

29 September, Tuesday

Time Temperature Precipitation Wind Pressure Humidity
00:00 +4°C° 0 mm 1 mps 624 mmHg 59%
01:00 +4°C° 0 mm 1 mps 624 mmHg 58%
02:00 +4°C° 0 mm 1 mps 624 mmHg 56%
03:00 +4°C° 0 mm 1 mps 623 mmHg 55%
04:00 +4°C° 0 mm 1 mps 623 mmHg 53%
05:00 +4°C° 0 mm 1 mps 623 mmHg 51%
06:00 +4°C° 0 mm 1 mps 623 mmHg 49%
07:00 +6°C° 0 mm 1 mps 624 mmHg 52%
08:00 +9°C° 0 mm 1 mps 625 mmHg 55%
09:00 +10°C° 0 mm 0 mps 626 mmHg 58%
10:00 +11°C° 0 mm 0 mps 627 mmHg 56%
11:00 +13°C° 0 mm 0 mps 627 mmHg 55%
12:00 +14°C° 0 mm 0 mps 628 mmHg 54%
13:00 +14°C° 0 mm 0 mps 627 mmHg 56%
14:00 +14°C° 0 mm 1 mps 627 mmHg 57%
15:00 +14°C° 0 mm 1 mps 626 mmHg 59%
16:00 +12°C° 0 mm 1 mps 625 mmHg 65%
17:00 +10°C° 0 mm 1 mps 624 mmHg 72%
18:00 +8°C° 0 mm 1 mps 623 mmHg 78%
19:00 +7°C° 0 mm 1 mps 623 mmHg 77%
20:00 +7°C° 0 mm 1 mps 624 mmHg 75%
21:00 +7°C° 0 mm 1 mps 624 mmHg 73%
22:00 +7°C° 0 mm 1 mps 623 mmHg 72%
23:00 +6°C° 0 mm 1 mps 623 mmHg 71%

30 September, Wednesday

Time Temperature Precipitation Wind Pressure Humidity
00:00 +6°C° 0 mm 1 mps 623 mmHg 70%
01:00 +6°C° 0 mm 1 mps 623 mmHg 70%
02:00 +6°C° 0 mm 1 mps 623 mmHg 71%
03:00 +6°C° 0 mm 1 mps 622 mmHg 71%
04:00 +6°C° 0 mm 1 mps 622 mmHg 70%
05:00 +4°C° 0 mm 2 mps 622 mmHg 68%
06:00 +4°C° 0 mm 2 mps 622 mmHg 67%
07:00 +8°C° 0 mm 1 mps 623 mmHg 64%
08:00 +10°C° 0 mm 1 mps 624 mmHg 61%
09:00 +12°C° 0 mm 0 mps 626 mmHg 58%
10:00 +13°C° 0 mm 0 mps 626 mmHg 57%
11:00 +15°C° 0 mm 1 mps 626 mmHg 55%
12:00 +16°C° 0 mm 1 mps 626 mmHg 54%
13:00 +15°C° 0 mm 1 mps 625 mmHg 55%
14:00 +15°C° 0 mm 1 mps 625 mmHg 57%
15:00 +15°C° 0 mm 1 mps 624 mmHg 59%
16:00 +12°C° 0 mm 1 mps 624 mmHg 68%
17:00 +10°C° 0 mm 1 mps 623 mmHg 76%
18:00 +8°C° 0 mm 1 mps 622 mmHg 85%
19:00 +7°C° 0 mm 1 mps 622 mmHg 84%
20:00 +7°C° 0 mm 1 mps 622 mmHg 83%
21:00 +7°C° 0 mm 1 mps 622 mmHg 82%
22:00 +7°C° 0 mm 1 mps 622 mmHg 81%
23:00 +6°C° 0 mm 1 mps 621 mmHg 79%
Show more